OpenBCM V1.13 (Linux)

Packet Radio Mailbox

DB0FHN

[JN59NK Nuernberg]

 Login: GUEST





  
DB3DH  > KEPLER   28.02.03 20:24l 169 Lines 8015 Bytes #999 (10) @ DL
BID : S2DDB0GOS00Y
Read: DB0FHN GUEST
Subj: 2 Line Kepler vom 27.02.03
Path: DB0FHN<DB0RGB<DB0MRW<DB0BOX<DB0GAP<DB0KFB<DB0CZ<DB0GE<DB0ZDF<DB0AIS<
      DB0WST<DB0ACH<DB0ACC<DB0GOS
Sent: 030228/1808z @:DB0GOS.#NRW.DEU.EU [Essen, JO31LJ] bcm1.45ex LT:010
From: DB3DH @ DB0GOS.#NRW.DEU.EU  (Gerd)
To:   KEPLER @ DL
X-Info: No login password

SB KEPS @ AMSAT  $ORB03058.N
2Line Orbital Elements 03058.AMSAT

HR AMSAT ORBITAL ELEMENTS FOR AMATEUR SATELLITES IN NASA FORMAT
FROM WA5QGD FORT WORTH,TX February 27, 2003
SEND SUBSCRIBE/UNSUBSCRIBE TO majordomo@amsat.org ONLY
BID: ORB03058.N

DECODE 2-LINE ELSETS WITH THE FOLLOWING KEY:
1 AAAAAU 00  0  0 BBBBB.BBBBBBBB  .CCCCCCCC  00000-0  00000-0 0  DDDZ
2 AAAAA EEE.EEEE FFF.FFFF GGGGGGG HHH.HHHH III.IIII JJ.JJJJJJJJKKKKKZ
KEY: A-CATALOGNUM B-EPOCHTIME C-DECAY D-ELSETNUM E-INCLINATION F-RAAN
G-ECCENTRICITY H-ARGPERIGEE I-MNANOM J-MNMOTION K-ORBITNUM Z-CHECKSUM

TO ALL RADIO AMATEURS BT

AO-07
1 07530U 74089B   03057.67235144 -.00000029  00000-0  10000-3 0  1527
2 07530 101.7595 105.3832 0012212  63.3786 296.8532 12.53564551294207
AO-10
1 14129U 83058B   03053.29347507 -.00000135  00000-0  10000-3 0 09207
2 14129 025.9661 163.6642 6025305 329.8586 006.1874 02.05867335148118
UO-11
1 14781U 84021B   03058.88610490  .00000731  00000-0  10868-3 0   828
2 14781  98.1192  32.8817 0009405 173.6318 186.5012 14.78018386 17613
RS-10/11
1 18129U 87054A   03058.25753205  .00000072  00000-0  61879-4 0  2054
2 18129  82.9275 140.1378 0010543 196.6847 163.3963 13.72701876785704
FO-20
1 20480U 90013C   03057.96509175 -.00000050  00000-0 -35751-4 0 04711
2 20480 099.0476 019.1291 0540637 344.8805 013.6668 12.83329947611591
RS-12/13
1 21089U 91007A   03057.83983977  .00000068  00000-0  56672-4 0 04951
2 21089 082.9235 175.2445 0027599 263.4432 096.3593 13.74405215604923
RS-15
1 23439U 94085A   03058.87234134 -.00000040  00000-0  58228-4 0  6840
2 23439  64.8161  26.4361 0146732 113.4257 248.2175 11.27547638336642
FO-29
1 24278U 96046B   03058.41659171 -.00000011  00000-0  24785-4 0  5638
2 24278  98.5379 208.4357 0350377 193.4476 165.7136 13.52872909322501
SO-33
1 25509U 98061B   03058.11426531  .00000542  00000-0  98581-4 0  7897
2 25509  31.4311 104.9011 0357262  17.4574 343.7986 14.27445357226535
AO-40
1 26609U 00072B   03058.16686962 -.00000267  00000-0  10000-3 0  3121
2 26609   8.1401  62.4789 7944119 148.1042 305.2468  1.25596203 10697
UO-14
1 20437U 90005B   03058.65692826  .00000070  00000-0  41818-4 0  1748
2 20437  98.2695 101.8346 0010660 170.1640 189.9754 14.31240517683796
AO-16
1 20439U 90005D   03058.18105172  .00000066  00000-0  40452-4 0  8577
2 20439  98.3157 113.1168 0010734 178.4857 181.6356 14.31474626683767
WO-18
1 20441U 90005F   03057.95167296  .00000096  00000-0  51880-4 0 00234
2 20441 098.3313 116.0149 0011570 179.1588 180.9615 14.31556500683787
LO-19
1 20442U 90005G   03057.71948015  .00000103  00000-0  54203-4 0  9729
2 20442  98.3446 118.8305 0011652 179.3442 180.7748 14.31719873683803
UO-22
1 21575U 91050B   03057.92041289  .00000242  00000-0  91436-4 0  7358
2 21575  98.1416  49.6212 0008391 104.7826 255.4293 14.39160101609487
KO-23
1 22077U 92052B   03057.96394380 -.00000037  00000-0  10000-3 0 02003
2 22077 066.0868 108.1491 0015669 271.5674 088.3552 12.86408787495388
AO-27
1 22825U 93061C   03058.50529159  .00000056  00000-0  38441-4 0  4967
2 22825  98.2744  87.7468 0007566 229.7500 130.3025 14.28945620491159
IO-26
1 22826U 93061D   03058.11410755  .00000096  00000-0  53762-4 0  3186
2 22826  98.2739  88.4942 0007989 233.8890 126.1548 14.29169106491146
KO-25
1 22828U 93061F   03058.16238774  .00000061  00000-0  40018-4 0  4354
2 22828  98.2711  88.8050 0009190 208.8050 151.2624 14.29510537459357
TO-31
1 25396U 98043C   03057.97044452 -.00000043  00000-0  00000-0 0 08930
2 25396 098.6243 134.9078 0003787 107.5577 252.6016 14.23513936240722
GO-32
1 25397U 98043D   03057.92521189  .00000038  00000-0  35884-4 0 01481
2 25397 098.6209 133.7381 0002164 112.1282 248.0123 14.22961622240683
UO-36
1 25693U 99021A   03058.82999256 -.00000058  00000-0  11718-4 0  7435
2 25693  64.5612 342.4399 0021140 315.4203  44.5205 14.76396684207622
AO-37
1 26065U 00004E   03058.22456049  .00000084  00000-0  49529-4 0  7433
2 26065 100.2100 114.5252 0036891 263.3051  96.3929 14.35512369161625
SO-41
1 26545U 00057A   03057.72746122  .00000579  00000-0  95952-4 0  4170
2 26545  64.5599   6.8464 0051582 237.4538 122.1586 14.78999525130427
MO-46
1 26548U 00057D   03057.80486726  .00000754  00000-0  11347-3 0 04229
2 26548 064.5586 359.4072 0044902 236.7402 122.9396 14.81294406130593
SO-42
1 26549U 00057E   03057.97240558  .00000500  00000-0  87368-4 0 07048
2 26549 064.5540 010.2520 0055924 237.4319 122.1367 14.77936518130384
NO-44
1 26931U 01043C   03058.55315393  .00000056  00000-0  54531-4 0  4122
2 26931  67.0473 232.4840 0005147 268.6501  91.4009 14.29118761 73630
AO-49
1 27605U 02058A   03058.41576325  .00000309  00000-0  70916-4 0   691
2 27605  64.5552 170.3763 0035969 110.2208 250.2757 14.71384118 10111
SO-50
1 27607U 02058C   03057.80675327  .00000583  00000-0  11828-3 0   620
2 27607  64.5520 172.7211 0036896 106.3222 254.1914 14.69920565 10010
NOAA-10
1 16969U 86073A   03058.94358287  .00000103  00000-0  60549-4 0  6783
2 16969  98.7307  53.0344 0013460  61.7698 298.4840 14.27067366855248
NOAA-11
1 19531U 88089A   03058.91933971  .00000124  00000-0  87717-4 0  5166
2 19531  98.8996 140.2702 0011769 172.3185 187.8166 14.14541698744125
NOAA-12
1 21263U 91032A   03058.89194490  .00000189  00000-0  98975-4 0  9854
2 21263  98.6274  48.3622 0013125 359.1420   0.9735 14.25086712612541
MET-3/5
1 21655U 91056A   03057.95507926  .00000051  00000-0  10000-3 0 05411
2 21655 082.5558 032.9341 0012895 173.3763 186.7532 13.16980630554587
MET-2/21
1 22782U 93055A   03057.85130393  .00000132  00000-0  10665-3 0  5285
2 22782  82.5487 208.3237 0021516 325.4947  34.4826 13.83533070479236
OKEAN-4
1 23317U 94066A   03057.95970834  .00000732  00000-0  91180-4 0 01886
2 23317 082.5433 321.1131 0024668 026.4273 333.8191 14.80931769451348
NOAA-14
1 23455U 94089A   03058.88996830  .00000053  00000-0  53256-4 0  5399
2 23455  99.1863  77.7028 0009026 199.5878 160.4948 14.13299623420796
SICH-1
1 23657U 95046A   03057.96919383  .00000671  00000-0  85286-4 0 00538
2 23657 082.5309 101.8841 0025273 009.0975 351.0692 14.79977469403471
NOAA-15
1 25338U 98030A   03058.87157838  .00000115  00000-0  68391-4 0   218
2 25338  98.5489  80.7690 0009681 293.1485  66.8673 14.24248439249127
RESURS
1 25394U 98043A   03058.56026951  .00000064  00000-0  47006-4 0  4588
2 25394  98.6301 136.3219 0002432  85.0042 275.1414 14.23880530240810
FENGYUN1
1 25730U 99025A   03057.94541340  .00000009  00000-0  28335-4 0 07797
2 25730 098.6341 082.0307 0014242 342.6687 017.3997 14.11734988195815
OKEAN-0
1 25860U 99039A   03057.92503401  .00000387  00000-0  68302-4 0 01016
2 25860 097.8630 105.1917 0001867 064.7671 295.3730 14.72617789194165
NOAA-16
1 26536U 00055A   03058.86526750 -.00000091  00000-0 -25582-4 0  2257
2 26536  98.9027   7.0806 0009845 283.5746  76.4316 14.11908009125469
NOAA-17
1 27453U 02032A   03058.91539101  .00000164  00000-0  91925-4 0  3202
2 27453  98.7541 130.0769 0011179 333.7236  26.3371 14.23298197 35296
HUBBLE
1 20580U 90037B   03058.22580071  .00002748  00000-0  21480-3 0  3415
2 20580  28.4694 341.8339 0003887   3.3471 122.3027 14.97852246503930
UARS
1 21701U 91063B   03058.07704627  .00000477  00000-0  54176-4 0  8342
2 21701  56.9833 357.6127 0004344 112.6563 247.4944 15.02873935626996
PO-34
1 25520U 98064B   03057.47011092  .00001667  00000-0  79392-4 0 06531
2 25520 028.4641 171.2373 0005549 077.1835 282.9343 15.13917239238789
ISS
1 25544U 98067A   03058.88967691  .00026517  00000-0  34056-3 0  7338
2 25544  51.6335 209.1950 0011979 255.0587 240.1145 15.58839520243956
WO-39
1 26061U 00004A   03058.55583121  .00000365  00000-0  13994-3 0  7750
2 26061 100.2030 117.2899 0034774 253.6770 106.0587 14.37834210161823
OO-38
1 26063U 00004C   03057.71025071  .00000104  00000-0  56361-4 0  7290
2 26063 100.2062 113.7631 0036737 264.2275  95.4714 14.35484584161550
NO-45
1 26932U 01043D   03057.97027898  .00000019  00000-0  40059-4 0 04127
2 26932 067.0539 233.6875 0004652 243.2358 116.8269 14.29296656073577


Read previous mail | Read next mail


 23.06.2026 23:04:21lGo back Go up